Flag for Hungary Weather past 2 weeks in Budapest, Hungary

Now
61 °F

Clear.


Feels Like: 61 °F
Forecast: 47 / 59 °F
Wind: 2 mph from North

Location: Ferenc Liszt International Airport

Current Time: Sep 22, 2014 at 2:24:59 AM

Latest Report: Sep 22, 2014 at 2:00 AM


Visibility: 10 mi

Pressure: 29.80 "Hg

Humidity: 94%

Dew point: 59 °F

Location of BudapestLocation

Historic Weather in Budapest — Graph

°F

Budapest temperature yesterday

Maximum temperature yesterday: 77 °F (at 2:00 PM)
Minimum temperature yesterday: 59 °F (at 2:00 AM)
Average temperature yesterday: 67 °F

Past Weeks' High & Low Weather Summary

 TemperatureHumidityPressure
High79 °F (Sep 8, 3:30 PM)100% (Sep 7, 5:30 AM)30.15 "Hg (Sep 7, 5:30 AM)
Low52 °F (Sep 9, 5:30 AM)44% (Sep 18, 5:00 PM)29.80 "Hg (Sep 11, 8:00 PM)
Average64 °F86%30.00 "Hg
* Reported Sep 7 1:00 AM — Sep 22 1:30 AM, Budapest, Weather by CustomWeather, © 2014

Note: Actual official high and low records may vary slightly from our data, if they occured in-between our weather recording intervals... More about our weather records

Advertising

Budapest weather history for previous 24 hours

 ConditionsComfort  
Time TempWeatherWind HumidityBarometerVisibility
1:30 AM
Sep 22
61 °FClear.5 mph94%29.83 "Hg10 mi
1:00 AM61 °FClear.5 mph94%29.83 "Hg10 mi
12:30 AM63 °FClear.7 mph94%29.83 "Hg10 mi
12:00 AM61 °FClear.7 mph94%29.83 "Hg10 mi
11:30 PM
Sep 21
61 °FClear.5 mph94%29.83 "Hg10 mi
11:00 PM64 °FPassing clouds.2 mph83%29.83 "HgN/A
10:30 PM63 °FPassing clouds.3 mph88%29.83 "HgN/A
10:00 PM63 °FPartly cloudy.2 mph83%29.83 "HgN/A
9:30 PM63 °FPassing clouds.7 mph88%29.83 "HgN/A
9:00 PM64 °FPassing clouds.3 mph83%29.83 "HgN/A
8:30 PM66 °FPassing clouds.5 mph83%29.86 "HgN/A
8:00 PM68 °FPassing clouds.3 mph73%29.86 "HgN/A
7:30 PM68 °FPartly sunny.6 mph73%29.86 "HgN/A
7:00 PM68 °FPartly sunny.7 mph73%29.83 "HgN/A
6:30 PM68 °FPartly sunny.6 mph73%29.83 "HgN/A
6:00 PM70 °FScattered clouds.7 mph64%29.83 "HgN/A
5:30 PM75 °FScattered clouds.9 mph54%29.83 "HgN/A
5:00 PM75 °FPassing clouds.10 mph54%29.83 "HgN/A
4:30 PM75 °FPassing clouds.10 mph54%29.86 "HgN/A
4:00 PM75 °FScattered clouds.12 mph54%29.86 "HgN/A
3:30 PM75 °FScattered clouds.10 mph57%29.86 "HgN/A
3:00 PM75 °FPassing clouds.12 mph54%29.86 "HgN/A
2:30 PM75 °FPassing clouds.14 mph57%29.89 "HgN/A
2:00 PM77 °FSunny.10 mph54%29.89 "Hg10 mi
1:30 PM75 °FPassing clouds.12 mph57%29.89 "HgN/A
1:00 PM75 °FSunny.13 mph57%29.89 "Hg10 mi
12:30 PM75 °FPassing clouds.14 mph57%29.89 "HgN/A
12:00 PM73 °FPassing clouds.14 mph61%29.89 "HgN/A
11:30 AM73 °FPassing clouds.10 mph65%29.89 "HgN/A
11:00 AM72 °FPassing clouds.10 mph69%29.89 "HgN/A
10:30 AM72 °FScattered clouds.13 mph69%29.92 "HgN/A
10:00 AM72 °FScattered clouds.7 mph73%29.89 "HgN/A
9:30 AM68 °FScattered clouds.1 mph88%29.89 "HgN/A
9:00 AM64 °FSunny.No wind100%29.92 "Hg10 mi
8:30 AM63 °FFog.No wind100%29.89 "HgN/A
8:00 AM63 °FFog.No wind100%29.92 "HgN/A
7:30 AM61 °FFog.No wind100%29.92 "Hg4 mi
7:00 AM61 °FFog.No wind100%29.92 "Hg3 mi
6:30 AM59 °FFog.5 mph100%29.92 "Hg2 mi
6:00 AM61 °FFog.No wind100%29.92 "Hg2 mi
5:30 AM61 °FFog.No wind100%29.92 "Hg2 mi
5:00 AM61 °FFog.No wind100%29.92 "Hg2 mi
4:30 AM61 °FFog.No wind100%29.92 "Hg2 mi
4:00 AM61 °FFog.1 mph100%29.92 "Hg2 mi
3:30 AM59 °FFog.2 mph100%29.92 "Hg2 mi
3:00 AM59 °FFog.3 mph100%29.92 "Hg2 mi
2:30 AM59 °FFog.No wind100%29.92 "Hg2 mi
2:00 AM59 °FFog.No wind100%29.95 "Hg2 mi
Weather by CustomWeather, © 2014

See weather overviewHow to use our weather pages